| time (UTC) | temp F | wind direction | speed MPH | gust MPH | rain 1hr in | rain 24hr in | rain mn in | humidity % | barometer mb |
| 20260503195904 | 60 | 235 | 8.0 | 21.0 | 0.00 | 0.00 | 0.00 | 38 | 1012.3 |
| 20260503195404 | 61 | 272 | 7.0 | 18.0 | 0.00 | 0.00 | 0.00 | 36 | 1012.3 |
| 20260503194905 | 62 | 228 | 12.0 | 22.0 | 0.00 | 0.00 | 0.00 | 36 | 1012.4 |
| 20260503194404 | 62 | 248 | 5.0 | 8.0 | 0.00 | 0.00 | 0.00 | 36 | 1012.3 |
| 20260503193904 | 61 | 259 | 4.0 | 13.0 | 0.00 | 0.00 | 0.00 | 36 | 1012.4 |
| 20260503193404 | 62 | 259 | 5.0 | 14.0 | 0.00 | 0.00 | 0.00 | 36 | 1012.5 |
| 20260503192904 | 62 | 238 | 5.0 | 16.0 | 0.00 | 0.00 | 0.00 | 37 | 1012.7 |
| 20260503191404 | 61 | 273 | 8.0 | 18.0 | 0.00 | 0.00 | 0.00 | 37 | 1012.9 |
| 20260503190904 | 60 | 259 | 6.0 | 14.0 | 0.00 | 0.00 | 0.00 | 37 | 1013.0 |
| 20260503190404 | 60 | 261 | 2.0 | 8.0 | 0.00 | 0.00 | 0.00 | 39 | 1013.0 |
| 20260503185404 | 59 | 240 | 7.0 | 12.0 | 0.00 | 0.00 | 0.00 | 37 | 1013.3 |
| 20260503184905 | 59 | 268 | 4.0 | 22.0 | 0.00 | 0.00 | 0.00 | 39 | 1013.4 |
| 20260503184405 | 59 | 242 | 5.0 | 14.0 | 0.00 | 0.00 | 0.00 | 38 | 1013.3 |
| 20260503183904 | 59 | 247 | 5.0 | 14.0 | 0.00 | 0.00 | 0.00 | 39 | 1013.4 |
| 20260503183405 | 60 | 281 | 6.0 | 22.0 | 0.00 | 0.00 | 0.00 | 37 | 1013.4 |
| 20260503182904 | 61 | 244 | 9.0 | 21.0 | 0.00 | 0.00 | 0.00 | 41 | 1013.2 |
| 20260503181904 | 60 | 124 | 5.0 | 18.0 | 0.00 | 0.00 | 0.00 | 42 | 1013.4 |
| 20260503181404 | 59 | 243 | 6.0 | 12.0 | 0.00 | 0.00 | 0.00 | 42 | 1013.6 |
| 20260503180404 | 60 | 228 | 10.0 | 23.0 | 0.00 | 0.00 | 0.00 | 40 | 1013.6 |
| 20260503175904 | 60 | 214 | 5.0 | 22.0 | 0.00 | 0.00 | 0.00 | 42 | 1013.6 |
| 20260503175404 | 60 | 247 | 5.0 | 12.0 | 0.00 | 0.00 | 0.00 | 43 | 1013.7 |
| 20260503174904 | 60 | 250 | 5.0 | 18.0 | 0.00 | 0.00 | 0.00 | 41 | 1013.9 |
| 20260503174404 | 60 | 196 | 3.0 | 6.0 | 0.00 | 0.00 | 0.00 | 42 | 1013.8 |
| 20260503173904 | 60 | 271 | 7.0 | 14.0 | 0.00 | 0.00 | 0.00 | 41 | 1013.8 |
| 20260503172904 | 59 | 252 | 9.0 | 16.0 | 0.00 | 0.00 | 0.00 | 39 | 1014.2 |
| 20260503172404 | 60 | 247 | 6.0 | 12.0 | 0.00 | 0.00 | 0.00 | 40 | 1014.2 |
| 20260503171904 | 60 | 242 | 4.0 | 17.0 | 0.00 | 0.00 | 0.00 | 42 | 1014.2 |
| 20260503171404 | 59 | 254 | 6.0 | 18.0 | 0.00 | 0.00 | 0.00 | 43 | 1014.4 |
| 20260503170404 | 58 | 260 | 5.0 | 16.0 | 0.00 | 0.00 | 0.00 | 43 | 1014.5 |
| 20260503150904 | 53 | 261 | 7.0 | 12.0 | 0.00 | 0.00 | 0.00 | 43 | 1015.5 |
| 20260503150404 | 53 | 241 | 5.0 | 14.0 | 0.00 | 0.00 | 0.00 | 42 | 1015.5 |
| 20260503131404 | 45 | 251 | 8.0 | 12.0 | 0.00 | 0.00 | 0.00 | 60 | 1016.2 |
| 20260503130904 | 45 | 259 | 0.0 | 1.0 | 0.00 | 0.00 | 0.00 | 63 | 1016.2 |
| 20260503130404 | 44 | 256 | 6.0 | 13.0 | 0.00 | 0.01 | 0.00 | 63 | 1016.2 |
| 20260503110404 | 33 | 212 | 0.0 | 0.0 | 0.00 | 0.03 | 0.00 | 93 | 1015.9 |
| 20260503090404 | 32 | 212 | 0.0 | 0.0 | 0.00 | 0.13 | 0.00 | 92 | 1015.6 |
| 20260503081404 | 33 | 212 | 0.0 | 0.0 | 0.00 | 0.14 | 0.00 | 91 | 1015.6 |
| 20260503080904 | 33 | 212 | 0.0 | 0.0 | 0.00 | 0.14 | 0.00 | 91 | 1015.6 |
| 20260503080404 | 33 | 212 | 0.0 | 0.0 | 0.00 | 0.14 | 0.00 | 91 | 1015.7 |
| 20260503072904 | 34 | 212 | 0.0 | 0.0 | 0.00 | 0.14 | 0.00 | 90 | 1015.6 |
| 20260503072404 | 34 | 212 | 0.0 | 0.0 | 0.00 | 0.14 | 0.00 | 90 | 1015.5 |
| 20260503071404 | 34 | 212 | 0.0 | 0.0 | 0.00 | 0.15 | 0.00 | 90 | 1015.5 |
| 20260503070904 | 34 | 212 | 0.0 | 0.0 | 0.00 | 0.15 | 0.00 | 89 | 1015.5 |
| 20260503070404 | 34 | 212 | 0.0 | 0.0 | 0.00 | 0.15 | 0.00 | 89 | 1015.6 |
| 20260503054904 | 37 | 212 | 0.0 | 0.0 | 0.00 | 0.15 | 0.00 | 86 | 1015.7 |
| 20260503054404 | 37 | 212 | 0.0 | 0.0 | 0.00 | 0.15 | 0.00 | 85 | 1015.7 |
| 20260503053404 | 38 | 212 | 0.0 | 0.0 | 0.00 | 0.15 | 0.00 | 85 | 1015.8 |
| 20260503052405 | 38 | 212 | 0.0 | 0.0 | 0.00 | 0.15 | 0.00 | 85 | 1015.8 |
| 20260503051905 | 38 | 212 | 0.0 | 0.0 | 0.00 | 0.15 | 0.00 | 85 | 1015.8 |
| 20260503051405 | 38 | 212 | 0.0 | 0.0 | 0.00 | 0.15 | 0.00 | 85 | 1015.8 |
| 20260503050905 | 38 | 212 | 0.0 | 0.0 | 0.00 | 0.15 | 0.00 | 84 | 1015.9 |
| 20260503050405 | 38 | 212 | 0.0 | 0.0 | 0.00 | 0.15 | 0.00 | 84 | 1016.0 |
| 20260503045906 | 38 | 212 | 0.0 | 0.0 | 0.00 | 0.15 | 0.00 | 84 | 1016.0 |
| 20260503045405 | 38 | 212 | 0.0 | 0.0 | 0.00 | 0.15 | 0.00 | 84 | 1016.0 |
| 20260503044906 | 38 | 212 | 0.0 | 0.0 | 0.00 | 0.15 | 0.00 | 84 | 1016.1 |
| 20260503043905 | 38 | 212 | 0.0 | 0.0 | 0.00 | 0.15 | 0.00 | 83 | 1016.0 |
| 20260503043405 | 38 | 212 | 0.0 | 0.0 | 0.00 | 0.15 | 0.00 | 84 | 1016.1 |
| 20260503042905 | 38 | 212 | 0.0 | 0.0 | 0.00 | 0.15 | 0.00 | 85 | 1016.1 |
| 20260503042405 | 38 | 212 | 0.0 | 0.0 | 0.00 | 0.15 | 0.00 | 84 | 1016.1 |
| 20260503041906 | 38 | 212 | 0.0 | 0.0 | 0.00 | 0.15 | 0.00 | 84 | 1016.1 |
| 20260503041405 | 38 | 212 | 0.0 | 0.0 | 0.00 | 0.15 | 0.00 | 84 | 1016.2 |
| 20260503040405 | 38 | 212 | 0.0 | 0.0 | 0.00 | 0.15 | 0.00 | 84 | 1016.2 |
| 20260503035405 | 38 | 212 | 0.0 | 0.0 | 0.00 | 0.15 | 0.15 | 85 | 1016.2 |
| 20260503034905 | 38 | 212 | 0.0 | 0.0 | 0.00 | 0.15 | 0.15 | 85 | 1016.2 |
| 20260503034405 | 38 | 212 | 0.0 | 0.0 | 0.00 | 0.15 | 0.15 | 85 | 1016.3 |
| 20260503033905 | 38 | 212 | 0.0 | 0.0 | 0.00 | 0.15 | 0.15 | 85 | 1016.3 |
| 20260503033406 | 39 | 212 | 0.0 | 0.0 | 0.00 | 0.15 | 0.15 | 85 | 1016.3 |
| 20260503032905 | 39 | 212 | 0.0 | 0.0 | 0.00 | 0.15 | 0.15 | 85 | 1016.3 |
| 20260503032406 | 39 | 212 | 0.0 | 0.0 | 0.00 | 0.15 | 0.15 | 85 | 1016.3 |
| 20260503031905 | 39 | 212 | 0.0 | 0.0 | 0.00 | 0.15 | 0.15 | 84 | 1016.3 |
| 20260503031406 | 39 | 212 | 0.0 | 0.0 | 0.00 | 0.15 | 0.15 | 84 | 1016.3 |
| 20260503030405 | 39 | 212 | 0.0 | 0.0 | 0.00 | 0.15 | 0.15 | 84 | 1016.4 |
| 20260503025407 | 39 | 212 | 0.0 | 0.0 | 0.00 | 0.15 | 0.15 | 83 | 1016.5 |
| 20260503024906 | 39 | 212 | 0.0 | 0.0 | 0.00 | 0.15 | 0.15 | 83 | 1016.5 |
| 20260503024405 | 39 | 212 | 0.0 | 0.0 | 0.00 | 0.15 | 0.15 | 82 | 1016.6 |
| 20260503023905 | 39 | 212 | 0.0 | 0.0 | 0.00 | 0.15 | 0.15 | 82 | 1016.7 |
| 20260503023405 | 39 | 212 | 0.0 | 0.0 | 0.00 | 0.15 | 0.15 | 81 | 1016.7 |
| 20260503022905 | 39 | 212 | 0.0 | 0.0 | 0.00 | 0.15 | 0.15 | 81 | 1016.7 |
| 20260503022405 | 39 | 212 | 0.0 | 0.0 | 0.00 | 0.15 | 0.15 | 80 | 1016.7 |
| 20260503021905 | 39 | 212 | 0.0 | 0.0 | 0.00 | 0.15 | 0.15 | 80 | 1016.7 |
| 20260503021405 | 39 | 212 | 0.0 | 0.0 | 0.00 | 0.15 | 0.15 | 80 | 1016.7 |
| 20260503020905 | 39 | 212 | 0.0 | 0.0 | 0.00 | 0.15 | 0.15 | 79 | 1016.7 |
| 20260503020406 | 39 | 212 | 0.0 | 0.0 | 0.00 | 0.15 | 0.15 | 78 | 1016.7 |
| 20260503015905 | 39 | 212 | 0.0 | 0.0 | 0.00 | 0.15 | 0.15 | 78 | 1016.7 |
| 20260503015406 | 39 | 212 | 0.0 | 0.0 | 0.00 | 0.15 | 0.15 | 77 | 1016.8 |
| 20260503014905 | 39 | 212 | 0.0 | 0.0 | 0.00 | 0.15 | 0.15 | 76 | 1016.8 |
| 20260503014406 | 39 | 212 | 0.0 | 0.0 | 0.00 | 0.15 | 0.15 | 75 | 1016.7 |
| 20260503013905 | 39 | 212 | 0.0 | 0.0 | 0.00 | 0.15 | 0.15 | 75 | 1016.7 |
| 20260503013405 | 39 | 212 | 0.0 | 0.0 | 0.00 | 0.15 | 0.15 | 74 | 1016.7 |
| 20260503012406 | 39 | 212 | 0.0 | 0.0 | 0.00 | 0.15 | 0.15 | 71 | 1016.7 |
| 20260503011905 | 40 | 212 | 0.0 | 0.0 | 0.00 | 0.15 | 0.15 | 72 | 1016.6 |
| 20260503011405 | 40 | 212 | 0.0 | 0.0 | 0.00 | 0.15 | 0.15 | 72 | 1016.7 |
| 20260503010905 | 40 | 212 | 0.0 | 0.0 | 0.00 | 0.15 | 0.15 | 73 | 1016.6 |
| 20260503010406 | 40 | 212 | 0.0 | 0.0 | 0.00 | 0.15 | 0.15 | 72 | 1016.6 |
| 20260503004406 | 40 | 212 | 0.0 | 0.0 | 0.00 | 0.15 | 0.15 | 68 | 1016.6 |
| 20260503003905 | 41 | 212 | 0.0 | 0.0 | 0.00 | 0.15 | 0.15 | 68 | 1016.6 |
| 20260503002905 | 41 | 212 | 0.0 | 0.0 | 0.00 | 0.15 | 0.15 | 68 | 1016.6 |
| 20260503002405 | 41 | 212 | 0.0 | 0.0 | 0.00 | 0.15 | 0.15 | 66 | 1016.4 |
| 20260503001906 | 41 | 212 | 0.0 | 0.0 | 0.00 | 0.15 | 0.15 | 66 | 1016.5 |
| 20260503001405 | 41 | 212 | 0.0 | 0.0 | 0.00 | 0.15 | 0.15 | 66 | 1016.5 |
| 20260503000905 | 41 | 212 | 0.0 | 0.0 | 0.00 | 0.15 | 0.15 | 65 | 1016.4 |
| 20260503000407 | 42 | 212 | 0.0 | 0.0 | 0.00 | 0.15 | 0.15 | 66 | 1016.4 |
| 20260502235405 | 42 | 212 | 0.0 | 0.0 | 0.00 | 0.15 | 0.15 | 66 | 1016.2 |
| 20260502234905 | 42 | 212 | 0.0 | 0.0 | 0.00 | 0.15 | 0.15 | 63 | 1016.2 |
| 20260502233905 | 42 | 212 | 0.0 | 0.0 | 0.00 | 0.15 | 0.15 | 64 | 1016.2 |
| 20260502233406 | 42 | 212 | 1.0 | 5.0 | 0.00 | 0.15 | 0.15 | 64 | 1016.2 |
| 20260502232905 | 42 | 45 | 0.0 | 0.0 | 0.00 | 0.15 | 0.15 | 64 | 1016.2 |
| 20260502231905 | 43 | 45 | 0.0 | 0.0 | 0.00 | 0.15 | 0.15 | 65 | 1016.2 |
| 20260502231405 | 43 | 45 | 0.0 | 0.0 | 0.00 | 0.15 | 0.15 | 64 | 1016.1 |
| 20260502230905 | 43 | 45 | 0.0 | 5.0 | 0.00 | 0.15 | 0.15 | 60 | 1016.1 |
| 20260502230405 | 43 | 31 | 0.0 | 0.0 | 0.00 | 0.15 | 0.15 | 62 | 1016.1 |
| 20260502225905 | 43 | 31 | 0.0 | 0.0 | 0.00 | 0.15 | 0.15 | 61 | 1016.1 |
| 20260502225405 | 43 | 35 | 0.0 | 1.0 | 0.00 | 0.15 | 0.15 | 60 | 1016.0 |
| 20260502224905 | 44 | 47 | 0.0 | 1.0 | 0.00 | 0.15 | 0.15 | 59 | 1015.9 |
| 20260502224405 | 44 | 47 | 1.0 | 5.0 | 0.00 | 0.15 | 0.15 | 59 | 1015.9 |
| 20260502223905 | 44 | 67 | 1.0 | 3.0 | 0.00 | 0.15 | 0.15 | 60 | 1015.8 |
| 20260502223405 | 44 | 71 | 0.0 | 0.0 | 0.00 | 0.15 | 0.15 | 62 | 1015.8 |
| 20260502222905 | 44 | 73 | 1.0 | 5.0 | 0.00 | 0.15 | 0.15 | 60 | 1015.8 |
| 20260502222405 | 44 | 43 | 0.0 | 0.0 | 0.00 | 0.15 | 0.15 | 57 | 1015.8 |
| 20260502221905 | 44 | 43 | 0.0 | 1.0 | 0.00 | 0.15 | 0.15 | 56 | 1015.7 |
| 20260502221405 | 44 | 62 | 0.0 | 3.0 | 0.00 | 0.15 | 0.15 | 56 | 1015.7 |
| 20260502220905 | 44 | 67 | 0.0 | 0.0 | 0.00 | 0.15 | 0.15 | 57 | 1015.7 |
| 20260502215905 | 44 | 67 | 0.0 | 0.0 | 0.00 | 0.15 | 0.15 | 55 | 1015.8 |
| 20260502214906 | 45 | 92 | 0.0 | 0.0 | 0.00 | 0.15 | 0.15 | 56 | 1015.6 |
| 20260502214405 | 45 | 92 | 1.0 | 6.0 | 0.00 | 0.15 | 0.15 | 56 | 1015.5 |
| 20260502212905 | 45 | 337 | 0.0 | 0.0 | 0.00 | 0.15 | 0.15 | 55 | 1015.4 |
| 20260502212405 | 45 | 337 | 0.0 | 3.0 | 0.00 | 0.15 | 0.15 | 56 | 1015.3 |
| 20260502211905 | 45 | 270 | 0.0 | 1.0 | 0.00 | 0.15 | 0.15 | 56 | 1015.2 |
| 20260502211405 | 45 | 270 | 1.0 | 6.0 | 0.00 | 0.15 | 0.15 | 55 | 1015.3 |
| 20260502210905 | 45 | 248 | 1.0 | 6.0 | 0.00 | 0.15 | 0.15 | 54 | 1015.3 |
| 20260502210405 | 45 | 109 | 0.0 | 1.0 | 0.00 | 0.15 | 0.15 | 57 | 1015.2 |
| 20260502205906 | 45 | 243 | 0.0 | 0.0 | 0.00 | 0.15 | 0.15 | 55 | 1015.2 |
| 20260502205405 | 45 | 52 | 0.0 | 0.0 | 0.00 | 0.15 | 0.15 | 62 | 1015.3 |
| 20260502204405 | 45 | 293 | 0.0 | 0.0 | 0.00 | 0.15 | 0.15 | 64 | 1015.3 |
| 20260502203405 | 45 | 292 | 0.0 | 0.0 | 0.00 | 0.15 | 0.15 | 61 | 1015.3 |
| 20260502202905 | 44 | 293 | 0.0 | 0.0 | 0.00 | 0.15 | 0.15 | 64 | 1015.4 |
| 20260502201905 | 44 | 280 | 2.0 | 3.0 | 0.00 | 0.15 | 0.15 | 61 | 1015.4 |
| 20260502200905 | 44 | 271 | 2.0 | 5.0 | 0.00 | 0.15 | 0.15 | 64 | 1015.5 |
| 20260502200405 | 44 | 271 | 1.0 | 5.0 | 0.00 | 0.15 | 0.15 | 64 | 1015.5 |